レオナード彗星

C/2020 K3 ( Leonard )

English version
Home page
Updated on June 26, 2020

---------------------------------------------------------------------

・ プロフィール

発見日 2020年5月22日
発見光度 18.0等
発見者 Gregory J. Leonard (Catalina Sky Survey)

・ 写真集

・ 軌道要素

Epoch 2020 May 31.0 TT = JDT 2459000.5
T 2020 May 30.12118 TT                                  Rudenko
q   1.5934541            (2000.0)            P               Q
z  +0.0047416      Peri.   62.69701     +0.66557535     -0.65073966
 +/-0.0000035      Node    27.92767     -0.52921424     -0.75676582
e   0.9924445      Incl.  128.71533     +0.52625254     +0.06199501
From 101 observations 2019 Oct. 25-2020 June 15, mean residual 0".5.

・ 光度変化

        m1 = 14.0 + 5 logΔ + 10.0 log r

---------------------------------------------------------------------

軌道要素はM.P.E.C. 2020-M07に掲載されたものです。
光度グラフはComet for Windowsで作成したものです。

---------------------------------------------------------------------

Copyright(C) Seiichi Yoshida (comet@aerith.net). All rights reserved.